Vorticity
nan nan nan nan nan nan nan nan nan nan nan nan nan nan nan nan nan nan nan nan nan nan nan nan nan nan nan nan nan nan nan nan nan nan nan nan nan nan nan nan nan nan nan
nan 6 5 6 5 5 5 4 5 6 5 6 6 4 5 5 4 4 4 5 5 5 5 5 5 4 4 5 6 5 5 5 4 5 2 3 5 6 4 3 9 6 nan
nan 7 5 4 5 6 6 5 6 6 6 5 6 5 5 5 5 5 4 4 5 5 7 5 4 4 4 6 5 5 6 5 4 2 4 4 7 6 5 4 7 4 nan
nan 6 7 5 7 8 6 6 6 6 5 4 5 5 6 6 6 5 5 7 7 7 8 8 5 4 5 6 5 5 6 6 4 3 7 5 6 6 5 5 5 5 nan
nan 4 9 7 7 8 7 5 4 6 6 4 4 5 4 6 6 6 5 5 13 12 8 11 6 5 6 5 4 4 5 5 1 8 6 6 6 8 9 13 10 7 nan
nan 6 4 7 7 7 6 6 6 6 6 4 4 5 4 6 6 6 7 8 9 12 13 11 5 5 6 5 4 4 5 5 4 6 6 5 8 9 8 11 10 9 nan
nan 8 4 5 8 6 5 5 5 5 4 6 5 4 5 6 7 3 5 11 6 8 9 7 5 5 6 5 4 5 7 4 8 5 6 6 5 6 8 6 5 5 nan
nan 6 5 4 7 8 6 4 4 5 7 6 5 5 6 6 6 4 6 4 5 6 5 5 5 6 7 5 4 6 8 6 5 4 5 5 5 8 9 6 5 6 nan
nan 6 6 5 2 5 6 6 8 7 8 7 5 6 7 8 7 6 5 4 5 4 5 5 6 6 7 6 5 6 6 6 8 6 6 5 5 9 7 4 5 5 nan
nan 6 5 6 5 4 3 7 6 8 8 6 6 7 7 5 6 7 7 8 4 5 5 6 6 7 7 7 6 6 6 7 6 5 4 7 8 7 5 4 4 5 nan
nan 6 5 6 6 5 5 5 3 5 4 4 5 5 3 5 7 3 6 9 8 7 6 7 7 6 1 4 7 7 3 6 5 5 8 5 7 6 6 6 5 6 nan
nan 7 8 6 5 5 7 7 6 4 4 6 5 2 2 7 7 5 7 5 6 5 7 6 6 4 3 2 6 5 6 7 6 6 7 8 10 5 5 6 5 6 nan
nan 8 7 6 6 5 5 5 7 7 9 10 8 5 6 6 6 7 5 7 6 5 6 6 4 4 7 5 6 7 9 7 6 5 5 11 10 5 6 6 6 5 nan
nan 6 6 6 6 4 4 7 6 6 7 8 10 6 5 6 6 6 6 7 6 7 7 6 5 8 7 7 7 7 6 5 6 7 3 10 12 5 5 6 6 6 nan
nan 6 7 6 7 6 5 5 7 7 8 7 9 8 5 6 6 6 6 6 7 7 7 7 7 7 8 7 7 7 7 7 6 6 5 13 13 6 6 6 5 5 nan
nan 8 7 6 6 7 6 5 5 8 7 7 8 10 6 4 6 6 6 7 6 7 7 7 7 7 8 8 7 7 6 7 7 6 8 10 8 9 6 6 6 7 nan
nan 7 7 8 6 7 6 6 5 7 8 7 9 10 7 5 5 6 6 7 7 8 7 7 7 7 7 8 8 7 7 7 7 7 7 6 4 7 9 7 6 6 nan
nan 10 8 8 8 6 6 7 6 6 7 8 8 10 9 6 6 5 6 7 8 7 7 8 7 7 7 7 7 7 8 8 8 7 6 6 6 5 7 10 7 6 nan
nan 8 8 9 8 7 7 8 10 8 7 7 7 9 10 8 6 5 6 7 7 7 7 7 7 7 7 7 7 7 8 8 8 8 8 7 7 6 5 7 8 7 nan
nan 9 8 9 9 7 9 9 9 10 9 9 9 8 8 9 8 5 6 8 7 7 7 8 7 7 7 8 8 7 7 7 8 9 9 8 8 8 8 5 4 5 nan
nan 10 10 9 8 7 7 7 7 8 8 8 11 11 7 8 8 6 6 9 8 8 7 7 8 7 7 8 7 7 8 9 8 7 9 9 8 8 7 5 5 6 nan
nan 9 9 9 9 7 4 6 7 7 8 8 9 13 11 9 8 7 6 9 7 8 10 8 6 5 9 7 3 7 10 9 12 10 8 9 8 8 8 7 7 6 nan
nan 12 11 10 9 9 7 5 5 6 8 10 8 10 12 9 10 8 6 6 8 8 10 11 10 5 6 9 6 3 8 10 11 12 10 8 8 7 9 9 8 8 nan
nan 17 14 13 12 11 12 9 8 5 5 6 7 7 10 12 11 11 9 8 6 8 9 9 9 8 6 7 7 6 3 11 9 7 12 12 9 9 8 9 9 8 nan
nan 14 17 18 16 13 12 11 9 6 6 8 9 10 9 11 12 11 12 11 8 8 9 9 8 6 5 6 5 10 9 6 7 9 11 11 10 11 10 9 10 9 nan
nan nan nan nan nan nan nan nan nan nan nan nan nan nan nan nan nan nan nan nan nan nan nan nan nan nan nan nan nan nan nan nan nan nan nan nan nan nan nan nan nan nan nan
CAPE
616 1617 2630 2313 1891 2040 1979 1985 2004 1700 1092 947 888 801 662 488 382 308 248 217 101 84 54 37 26 7 0 0 0 0 0 0 0 0 0 0 0 1 0 0 0 0 3
682 1556 2506 2473 2277 2355 2286 2120 2004 1682 1342 814 460 305 131 51 6 1 1 6 40 63 73 47 37 4 0 0 0 0 0 0 0 0 0 0 0 0 0 0 0 0 0
670 1564 1752 2373 2337 2479 2374 2211 1975 1652 1012 666 388 198 175 112 5 15 3 1 0 2 80 69 51 24 4 0 0 0 0 0 0 0 0 0 0 0 0 0 0 0 0
1180 1396 1466 2272 2465 2369 2140 2026 1893 1494 904 585 246 95 52 37 66 61 4 0 0 0 9 96 60 42 0 0 0 0 0 0 0 0 2 0 0 0 0 0 0 0 0
1185 1442 1650 2358 2560 2440 2197 2019 1774 1563 999 554 230 76 8 3 15 2 0 0 3 80 58 138 111 8 0 0 0 0 0 0 0 0 8 17 12 2 13 8 0 0 0
1286 1526 1751 2300 2493 2395 2214 1938 1794 1435 955 454 142 62 5 3 2 0 0 79 160 117 61 144 39 0 0 0 0 0 0 0 0 9 27 10 70 106 98 151 112 119 185
1193 1391 1649 2340 2398 2294 2045 1899 1286 1024 868 425 143 69 3 1 0 0 0 103 111 174 156 85 3 0 0 0 0 0 0 0 5 28 46 88 48 36 28 102 50 30 8
1272 1227 1479 1859 1902 1787 1661 1420 1007 798 761 492 162 81 38 0 0 0 4 104 117 106 76 40 12 0 0 0 0 0 0 0 5 12 29 44 45 1 33 61 11 8 6
1256 1158 1031 1410 1082 927 931 854 745 688 1022 606 401 210 59 26 1 0 9 12 39 73 50 21 19 0 0 0 0 0 0 0 17 16 25 42 27 61 119 52 18 9 5
1066 1166 1088 1016 912 759 471 548 632 663 850 510 340 197 54 0 0 0 41 100 44 37 12 0 0 0 0 0 0 0 0 0 17 19 26 39 4 52 37 12 2 5 6
805 1021 1011 918 795 488 434 468 323 249 350 351 185 34 4 0 0 0 0 24 104 44 0 0 2 20 0 0 0 0 0 7 6 7 14 18 7 26 11 4 2 3 1
664 803 951 861 644 477 313 332 436 244 218 156 224 96 72 0 0 0 0 24 82 98 67 12 89 0 0 0 0 0 4 1 1 0 2 0 39 11 1 2 0 0 0
670 757 681 808 813 570 360 212 220 207 151 139 151 136 76 4 0 0 0 9 18 0 1 30 70 0 1 0 0 0 0 0 0 0 0 0 36 6 0 0 0 0 0
741 698 627 757 651 611 439 243 119 108 119 116 128 103 90 43 65 23 0 0 6 0 3 32 44 15 4 0 0 0 0 0 0 0 0 0 40 1 0 0 0 0 0
775 685 635 545 474 730 597 370 135 98 86 63 86 92 73 62 76 133 90 7 0 0 12 44 37 2 4 0 0 0 0 0 0 0 0 0 31 0 0 0 0 0 0
611 712 672 616 508 582 771 556 265 139 92 45 60 77 56 56 80 172 191 133 20 2 10 39 29 0 0 0 0 0 0 0 0 0 0 4 0 0 0 0 0 0 0
1139 1023 900 675 495 607 832 767 517 286 153 116 79 62 65 98 144 150 173 189 159 9 8 21 28 0 0 0 0 0 0 0 0 0 0 0 0 0 0 0 0 0 0
0 517 1060 930 746 713 670 930 769 564 326 191 130 87 64 76 115 132 121 126 161 125 21 2 1 0 0 0 0 0 0 0 0 0 0 0 0 0 0 0 0 0 0
0 0 0 499 1029 959 777 819 790 769 632 459 278 160 120 89 96 103 83 93 131 146 81 12 0 0 0 0 0 0 0 0 0 0 0 0 0 0 0 0 0 0 0
0 0 0 0 268 873 640 653 554 452 576 729 647 429 231 154 125 100 70 62 74 165 106 65 0 0 0 0 0 0 0 0 0 0 0 0 0 0 0 0 0 0 0
0 0 0 0 0 211 990 545 452 436 398 388 570 795 569 350 134 129 103 74 41 112 174 110 0 0 0 0 0 0 0 0 0 0 0 0 0 0 0 0 0 0 0
0 0 0 0 0 0 196 728 793 708 674 559 450 394 616 601 378 223 167 190 83 66 152 147 1 0 0 0 0 0 0 0 0 0 0 0 0 0 0 0 0 0 0
0 0 0 0 0 0 0 80 409 495 813 663 577 603 507 438 670 428 285 420 214 74 110 121 6 0 0 0 0 0 0 0 0 0 0 0 0 0 0 0 0 0 0
0 0 0 0 0 0 0 0 106 225 387 483 698 772 879 433 294 511 466 473 264 147 88 84 0 0 0 0 0 0 0 0 0 0 0 0 0 0 0 0 0 0 0
0 0 0 0 0 0 0 0 4 112 128 389 628 736 777 638 265 131 160 310 253 121 52 14 0 0 0 0 0 0 0 0 0 0 0 0 0 0 0 0 0 0 0
0 0 0 0 0 0 0 0 0 0 73 334 563 694 850 732 287 74 42 69 113 71 32 36 1 0 0 0 0 0 0 0 0 0 0 0 0 0 0 0 0 0 0